Flag for Netherlands Weather past 2 weeks in Zoetermeer, Netherlands

Now
52 °F

Mostly cloudy.


Feels Like: 49 °F
Forecast: 38 / 51 °F
Wind: 9 mph from Northeast

Location: Rotterdam Zestienhoven Airport

Current Time: Apr 26, 2015 at 6:36:00 PM

Latest Report: Apr 26, 2015 at 5:55 PM


Visibility: N/A

Pressure: 29.71 "Hg

Humidity: 88%

Dew point: 48 °F

Location of ZoetermeerLocation

Historic Weather in Zoetermeer — Graph

°F

Zoetermeer temperature yesterday

Maximum temperature yesterday: 61 °F (at 1:55 PM)
Minimum temperature yesterday: 52 °F (at 12:55 AM)
Average temperature yesterday: 55 °F

Past Weeks' High & Low Weather Summary

 TemperatureHumidityPressure
High70 °F (Apr 15, 1:55 PM)100% (Apr 16, 2:55 AM)30.51 "Hg (Apr 16, 2:55 AM)
Low34 °F (Apr 19, 5:55 AM)39% (Apr 21, 4:55 PM)29.68 "Hg (Apr 26, 3:55 AM)
Average50 °F76%30.17 "Hg
* Reported Apr 11 5:25 PM — Apr 26 5:25 PM, Zoetermeer, Weather by CustomWeather, © 2015

Note: Actual official high and low records may vary slightly from our data, if they occured in-between our weather recording intervals... More about our weather records

Advertising

Zoetermeer weather history for previous 24 hours

 ConditionsComfort  
Time TempWeatherWind HumidityBarometerVisibility
5:25 PM
Sun, Apr 26
52 °FBroken clouds.9 mph82%29.71 "HgN/A
4:55 PM52 °FOvercast.8 mph88%29.71 "HgN/A
4:25 PM52 °FMostly cloudy.8 mph88%29.71 "HgN/A
3:55 PM52 °FMostly cloudy.6 mph88%29.71 "HgN/A
3:25 PM52 °FMostly cloudy.8 mph88%29.71 "HgN/A
2:55 PM52 °FMostly cloudy.7 mph88%29.71 "HgN/A
2:25 PM52 °FMostly cloudy.7 mph88%29.71 "HgN/A
1:55 PM50 °FDrizzle. Cloudy.7 mph94%29.71 "Hg3 mi
1:25 PM52 °FCloudy.6 mph88%29.71 "Hg6 mi
12:55 PM52 °FDrizzle. Cloudy.6 mph94%29.71 "Hg2 mi
12:25 PM52 °FDrizzle. Mostly cloudy.5 mph94%29.71 "Hg2 mi
11:55 AM52 °FFog.6 mph94%29.71 "Hg2 mi
11:25 AM52 °FBroken clouds.7 mph94%29.71 "Hg4 mi
10:55 AM52 °FFog.7 mph100%29.71 "Hg2 mi
10:25 AM52 °FFog.10 mph94%29.71 "Hg2 mi
9:55 AM52 °FFog.9 mph100%29.71 "Hg3 mi
9:25 AM52 °FFog.10 mph94%29.71 "Hg3 mi
8:55 AM52 °FDrizzle. Cloudy.10 mph100%29.71 "Hg2 mi
8:25 AM54 °FFog.10 mph94%29.71 "Hg3 mi
7:55 AM54 °FCloudy.10 mph88%29.71 "Hg5 mi
7:25 AM54 °FPartly sunny.10 mph88%29.68 "Hg5 mi
6:55 AM54 °FPassing clouds.9 mph94%29.68 "Hg4 mi
6:25 AM54 °FMostly cloudy.7 mph94%29.68 "Hg4 mi
5:55 AM54 °FPassing clouds.7 mph94%29.68 "HgN/A
5:25 AM54 °FPartly cloudy.7 mph94%29.68 "Hg5 mi
4:55 AM54 °FOvercast.6 mph94%29.68 "HgN/A
4:25 AM54 °FPassing clouds.7 mph94%29.68 "HgN/A
3:55 AM54 °FPassing clouds.7 mph94%29.68 "HgN/A
3:25 AM54 °FPassing clouds.7 mph94%29.71 "HgN/A
2:55 AM54 °FMostly cloudy.8 mph94%29.71 "HgN/A
2:25 AM54 °FSprinkles. Passing clouds.8 mph94%29.71 "Hg5 mi
1:55 AM54 °FLight rain. Mostly cloudy.8 mph88%29.71 "HgN/A
1:25 AM54 °FPartly cloudy.7 mph88%29.71 "HgN/A
12:55 AM55 °FClear.8 mph77%29.71 "HgN/A
12:25 AM54 °FPassing clouds.3 mph82%29.71 "HgN/A
11:55 PM
Sat, Apr 25
54 °FClear.6 mph82%29.71 "HgN/A
10:55 PM52 °FCool.8 mph82%29.71 "HgN/A
10:25 PM54 °FClear.9 mph77%29.71 "HgN/A
9:55 PM54 °FCool.10 mph77%29.71 "HgN/A
9:25 PM55 °FCool.12 mph72%29.71 "HgN/A
8:55 PM55 °FCool.15 mph72%29.71 "HgN/A
8:25 PM57 °FCool.14 mph67%29.71 "HgN/A
7:55 PM57 °FClear.18 mph67%29.71 "HgN/A
7:25 PM59 °FCool.14 mph68%29.71 "HgN/A
6:55 PM59 °FClear.17 mph72%29.71 "HgN/A
6:25 PM59 °FClear.14 mph72%29.71 "HgN/A
Weather by CustomWeather, © 2015

See weather overviewHow to use our weather pages